| time (UTC) | temp C | wind direction | speed KPH | gust KPH | rain 1hr cm | rain 24hr cm | rain mn cm | humidity % | barometer mb |
| 20260903035552 | 30 | 150 | 6.4 | 17.7 | 0.00 | 0.00 | 0.00 | 67 | 1012.1 |
| 20260903035054 | 30 | 144 | 4.8 | 19.3 | 0.00 | 0.00 | 0.00 | 67 | 1012.1 |
| 20260903034604 | 30 | 170 | 6.4 | 19.3 | 0.00 | 0.00 | 0.00 | 66 | 1012.0 |
| 20260903034053 | 30 | 197 | 6.4 | 24.1 | 0.00 | 0.00 | 0.00 | 66 | 1012.0 |
| 20260903033553 | 31 | 165 | 6.4 | 24.1 | 0.00 | 0.00 | 0.00 | 66 | 1012.0 |
| 20260903033105 | 31 | 128 | 6.4 | 14.5 | 0.00 | 0.00 | 0.00 | 65 | 1012.0 |
| 20260903032553 | 31 | 161 | 3.2 | 20.9 | 0.00 | 0.00 | 0.00 | 65 | 1011.9 |
| 20260903032053 | 31 | 134 | 8.0 | 20.9 | 0.00 | 0.00 | 0.00 | 64 | 1011.8 |
| 20260903031558 | 31 | 137 | 6.4 | 16.1 | 0.00 | 0.00 | 0.00 | 63 | 1011.7 |
| 20260903031059 | 31 | 167 | 4.8 | 17.7 | 0.00 | 0.00 | 0.00 | 62 | 1011.6 |
| 20260903030552 | 31 | 200 | 6.4 | 17.7 | 0.00 | 0.00 | 0.00 | 61 | 1011.6 |
| 20260903030128 | 31 | 132 | 4.8 | 17.7 | 0.00 | 0.00 | 0.00 | 59 | 1011.4 |
| 20260903025555 | 31 | 153 | 3.2 | 16.1 | 0.00 | 0.00 | 0.00 | 57 | 1011.4 |
| 20260903025053 | 31 | 221 | 4.8 | 22.5 | 0.00 | 0.00 | 0.00 | 55 | 1011.3 |
| 20260903024556 | 31 | 209 | 8.0 | 22.5 | 0.00 | 0.00 | 0.00 | 54 | 1011.2 |
| 20260903024052 | 31 | 0 | 0.0 | 3.2 | 0.00 | 0.00 | 0.00 | 50 | 1011.0 |
| 20260903023557 | 32 | 0 | 0.0 | 3.2 | 0.00 | 0.00 | 0.00 | 50 | 1010.9 |
| 20260903023110 | 32 | 129 | 0.0 | 3.2 | 0.00 | 0.00 | 0.00 | 50 | 1010.9 |
| 20260903022554 | 32 | 0 | 0.0 | 3.2 | 0.00 | 0.00 | 0.00 | 50 | 1010.8 |
| 20260903022054 | 32 | 129 | 0.0 | 1.6 | 0.00 | 0.00 | 0.00 | 49 | 1010.7 |
| 20260903021602 | 32 | 0 | 0.0 | 1.6 | 0.00 | 0.00 | 0.00 | 49 | 1010.7 |
| 20260903021053 | 32 | 0 | 0.0 | 3.2 | 0.00 | 0.00 | 0.00 | 48 | 1010.4 |
| 20260903020558 | 32 | 129 | 0.0 | 3.2 | 0.00 | 0.00 | 0.00 | 48 | 1010.4 |
| 20260903020106 | 32 | 129 | 0.0 | 6.4 | 0.00 | 0.00 | 0.00 | 48 | 1010.5 |
| 20260903015554 | 33 | 0 | 0.0 | 6.4 | 0.00 | 0.00 | 0.00 | 48 | 1010.4 |
| 20260903015052 | 33 | 133 | 0.0 | 3.2 | 0.00 | 0.00 | 0.00 | 48 | 1010.3 |
| 20260903014618 | 33 | 0 | 0.0 | 3.2 | 0.00 | 0.00 | 0.00 | 48 | 1010.2 |
| 20260903014056 | 33 | 133 | 0.0 | 3.2 | 0.00 | 0.00 | 0.00 | 47 | 1010.2 |
| 20260903013553 | 33 | 0 | 0.0 | 3.2 | 0.00 | 0.00 | 0.00 | 47 | 1010.1 |
| 20260903013102 | 33 | 0 | 0.0 | 1.6 | 0.00 | 0.00 | 0.00 | 47 | 1010.2 |
| 20260902224053 | 38 | 128 | 1.6 | 9.7 | 0.00 | 0.00 | 0.00 | 36 | 1010.3 |
| 20260902223552 | 38 | 127 | 3.2 | 9.7 | 0.00 | 0.00 | 0.00 | 37 | 1010.4 |
| 20260902223100 | 38 | 161 | 4.8 | 9.7 | 0.00 | 0.00 | 0.00 | 36 | 1010.4 |
| 20260902222553 | 38 | 181 | 0.0 | 11.3 | 0.00 | 0.00 | 0.00 | 35 | 1010.4 |
| 20260902222054 | 38 | 182 | 4.8 | 11.3 | 0.00 | 0.00 | 0.00 | 36 | 1010.4 |
| 20260902221613 | 38 | 226 | 3.2 | 9.7 | 0.00 | 0.00 | 0.00 | 35 | 1010.4 |
| 20260902221052 | 38 | 174 | 4.8 | 12.9 | 0.00 | 0.00 | 0.00 | 36 | 1010.5 |
| 20260902220553 | 38 | 178 | 3.2 | 12.9 | 0.00 | 0.00 | 0.00 | 36 | 1010.6 |
| 20260902220108 | 38 | 231 | 3.2 | 11.3 | 0.00 | 0.00 | 0.00 | 37 | 1010.6 |
| 20260902215553 | 38 | 252 | 4.8 | 11.3 | 0.00 | 0.00 | 0.00 | 36 | 1010.6 |
| 20260902215055 | 38 | 273 | 4.8 | 11.3 | 0.00 | 0.00 | 0.00 | 37 | 1010.7 |
| 20260902214601 | 38 | 201 | 3.2 | 11.3 | 0.00 | 0.00 | 0.00 | 37 | 1010.7 |
| 20260902214052 | 38 | 199 | 3.2 | 11.3 | 0.00 | 0.00 | 0.00 | 39 | 1010.7 |
| 20260902213549 | 38 | 130 | 1.6 | 9.7 | 0.00 | 0.00 | 0.00 | 39 | 1010.7 |
| 20260902213059 | 38 | 231 | 3.2 | 12.9 | 0.00 | 0.00 | 0.00 | 38 | 1010.8 |
| 20260902212554 | 38 | 202 | 3.2 | 12.9 | 0.00 | 0.00 | 0.00 | 39 | 1010.8 |
| 20260902212053 | 38 | 202 | 6.4 | 12.9 | 0.00 | 0.00 | 0.00 | 39 | 1010.8 |
| 20260902211558 | 38 | 188 | 3.2 | 12.9 | 0.00 | 0.00 | 0.00 | 38 | 1010.8 |
| 20260902211055 | 38 | 188 | 1.6 | 12.9 | 0.00 | 0.00 | 0.00 | 40 | 1010.8 |
| 20260902210552 | 37 | 223 | 4.8 | 12.9 | 0.00 | 0.00 | 0.00 | 39 | 1011.0 |
| 20260902205550 | 38 | 229 | 6.4 | 14.5 | 0.00 | 0.00 | 0.00 | 40 | 1011.1 |
| 20260902205049 | 38 | 120 | 4.8 | 14.5 | 0.00 | 0.00 | 0.00 | 41 | 1011.4 |
| 20260902204616 | 38 | 164 | 8.0 | 14.5 | 0.00 | 0.00 | 0.00 | 40 | 1011.3 |
| 20260902204050 | 38 | 119 | 3.2 | 11.3 | 0.00 | 0.00 | 0.00 | 41 | 1011.4 |
| 20260902203552 | 37 | 157 | 3.2 | 11.3 | 0.00 | 0.00 | 0.00 | 42 | 1011.5 |
| 20260902203057 | 37 | 187 | 3.2 | 14.5 | 0.00 | 0.00 | 0.00 | 41 | 1011.6 |
| 20260902202557 | 37 | 0 | 4.8 | 14.5 | 0.00 | 0.00 | 0.00 | 42 | 1011.6 |
| 20260902202055 | 37 | 223 | 3.2 | 16.1 | 0.00 | 0.00 | 0.00 | 41 | 1011.8 |
| 20260902201557 | 37 | 219 | 8.0 | 16.1 | 0.00 | 0.00 | 0.00 | 41 | 1011.9 |
| 20260902201052 | 38 | 61 | 1.6 | 14.5 | 0.00 | 0.00 | 0.00 | 41 | 1011.9 |
| 20260902200549 | 37 | 182 | 4.8 | 14.5 | 0.00 | 0.00 | 0.00 | 40 | 1012.1 |
| 20260902200100 | 37 | 128 | 3.2 | 11.3 | 0.00 | 0.00 | 0.00 | 41 | 1012.3 |
| 20260902195553 | 37 | 159 | 3.2 | 16.1 | 0.00 | 0.00 | 0.00 | 43 | 1012.4 |
| 20260902195049 | 37 | 134 | 4.8 | 16.1 | 0.00 | 0.00 | 0.00 | 43 | 1012.4 |
| 20260902194622 | 37 | 279 | 4.8 | 11.3 | 0.00 | 0.00 | 0.00 | 42 | 1012.5 |
| 20260902194055 | 37 | 200 | 4.8 | 12.9 | 0.00 | 0.00 | 0.00 | 43 | 1012.5 |
| 20260902193549 | 36 | 0 | 3.2 | 12.9 | 0.00 | 0.00 | 0.00 | 43 | 1012.7 |
| 20260902193105 | 36 | 265 | 4.8 | 12.9 | 0.00 | 0.00 | 0.00 | 43 | 1012.7 |
| 20260902192549 | 36 | 75 | 1.6 | 12.9 | 0.00 | 0.00 | 0.00 | 45 | 1012.7 |
| 20260902192049 | 36 | 138 | 3.2 | 12.9 | 0.00 | 0.00 | 0.00 | 47 | 1012.8 |
| 20260902191608 | 36 | 154 | 3.2 | 9.7 | 0.00 | 0.00 | 0.00 | 47 | 1013.0 |
| 20260902191049 | 36 | 0 | 1.6 | 12.9 | 0.00 | 0.00 | 0.00 | 47 | 1013.0 |
| 20260902190556 | 36 | 0 | 4.8 | 14.5 | 0.00 | 0.00 | 0.00 | 46 | 1013.2 |
| 20260902185555 | 36 | 240 | 4.8 | 16.1 | 0.00 | 0.00 | 0.00 | 45 | 1013.3 |
| 20260902185055 | 36 | 298 | 6.4 | 16.1 | 0.00 | 0.00 | 0.00 | 46 | 1013.3 |
| 20260902184658 | 36 | 227 | 3.2 | 14.5 | 0.00 | 0.00 | 0.00 | 46 | 1013.4 |
| 20260902184054 | 36 | 115 | 4.8 | 14.5 | 0.00 | 0.00 | 0.00 | 46 | 1013.5 |
| 20260902183555 | 36 | 173 | 6.4 | 16.1 | 0.00 | 0.00 | 0.00 | 49 | 1013.6 |
| 20260902183139 | 35 | 0 | 6.4 | 16.1 | 0.00 | 0.00 | 0.00 | 50 | 1013.7 |
| 20260902182556 | 35 | 316 | 3.2 | 12.9 | 0.00 | 0.00 | 0.00 | 49 | 1013.8 |
| 20260902182054 | 35 | 200 | 4.8 | 11.3 | 0.00 | 0.00 | 0.00 | 49 | 1013.8 |
| 20260902181611 | 35 | 209 | 4.8 | 12.9 | 0.00 | 0.00 | 0.00 | 50 | 1013.9 |
| 20260902181055 | 34 | 208 | 4.8 | 12.9 | 0.00 | 0.00 | 0.00 | 49 | 1014.0 |
| 20260902180554 | 34 | 238 | 6.4 | 12.9 | 0.00 | 0.00 | 0.00 | 52 | 1014.1 |
| 20260902180106 | 34 | 239 | 3.2 | 17.7 | 0.00 | 0.00 | 0.00 | 53 | 1014.2 |
| 20260902175555 | 34 | 244 | 8.0 | 17.7 | 0.00 | 0.00 | 0.00 | 53 | 1014.2 |
| 20260902175057 | 34 | 223 | 3.2 | 16.1 | 0.00 | 0.00 | 0.00 | 52 | 1014.4 |
| 20260902174558 | 34 | 231 | 6.4 | 16.1 | 0.00 | 0.00 | 0.00 | 53 | 1014.4 |
| 20260902174055 | 34 | 184 | 3.2 | 11.3 | 0.00 | 0.00 | 0.00 | 53 | 1014.5 |
| 20260902173554 | 33 | 207 | 3.2 | 12.9 | 0.00 | 0.00 | 0.00 | 53 | 1014.5 |
| 20260902173103 | 33 | 163 | 4.8 | 16.1 | 0.00 | 0.00 | 0.00 | 53 | 1014.6 |
| 20260902172554 | 33 | 178 | 4.8 | 16.1 | 0.00 | 0.00 | 0.00 | 56 | 1014.7 |
| 20260902172058 | 33 | 280 | 4.8 | 12.9 | 0.00 | 0.00 | 0.00 | 56 | 1014.7 |
| 20260902171626 | 33 | 194 | 4.8 | 9.7 | 0.00 | 0.00 | 0.00 | 58 | 1014.8 |
| 20260902171055 | 33 | 0 | 3.2 | 9.7 | 0.00 | 0.00 | 0.00 | 61 | 1014.9 |
| 20260902170556 | 33 | 194 | 1.6 | 16.1 | 0.00 | 0.00 | 0.00 | 62 | 1014.9 |
| 20260902170103 | 32 | 113 | 3.2 | 16.1 | 0.00 | 0.00 | 0.00 | 62 | 1015.0 |
| 20260902165554 | 32 | 202 | 6.4 | 16.1 | 0.00 | 0.00 | 0.00 | 62 | 1015.1 |
| 20260902165054 | 32 | 193 | 3.2 | 14.5 | 0.00 | 0.00 | 0.00 | 62 | 1015.1 |
| 20260902164622 | 32 | 225 | 6.4 | 12.9 | 0.00 | 0.00 | 0.00 | 63 | 1015.1 |
| 20260902164054 | 32 | 215 | 1.6 | 12.9 | 0.00 | 0.00 | 0.00 | 64 | 1015.1 |
| 20260902163554 | 32 | 174 | 3.2 | 12.9 | 0.00 | 0.00 | 0.00 | 65 | 1015.1 |
| 20260902163101 | 31 | 204 | 4.8 | 12.9 | 0.00 | 0.00 | 0.00 | 65 | 1015.1 |
| 20260902162554 | 31 | 170 | 4.8 | 14.5 | 0.00 | 0.00 | 0.00 | 65 | 1015.1 |
| 20260902162054 | 31 | 190 | 6.4 | 14.5 | 0.00 | 0.00 | 0.00 | 67 | 1015.2 |
| 20260902161603 | 31 | 155 | 4.8 | 16.1 | 0.00 | 0.00 | 0.00 | 68 | 1015.2 |
| 20260902161055 | 30 | 259 | 6.4 | 17.7 | 0.00 | 0.00 | 0.00 | 68 | 1015.2 |
| 20260902160554 | 30 | 234 | 9.7 | 17.7 | 0.00 | 0.00 | 0.00 | 69 | 1015.2 |
| 20260902160105 | 30 | 200 | 4.8 | 17.7 | 0.00 | 0.00 | 0.00 | 70 | 1015.2 |
| 20260902155555 | 30 | 234 | 6.4 | 14.5 | 0.00 | 0.00 | 0.00 | 70 | 1015.2 |
| 20260902155053 | 30 | 277 | 6.4 | 17.7 | 0.00 | 0.00 | 0.00 | 72 | 1015.3 |
| 20260902154606 | 30 | 263 | 6.4 | 17.7 | 0.00 | 0.00 | 0.00 | 72 | 1015.3 |
| 20260902154058 | 29 | 229 | 6.4 | 16.1 | 0.00 | 0.00 | 0.00 | 74 | 1015.3 |
| 20260902153554 | 29 | 249 | 6.4 | 14.5 | 0.00 | 0.00 | 0.00 | 73 | 1015.2 |
| 20260902153102 | 29 | 219 | 8.0 | 14.5 | 0.00 | 0.00 | 0.00 | 75 | 1015.2 |
| 20260902152555 | 28 | 196 | 4.8 | 16.1 | 0.00 | 0.00 | 0.00 | 77 | 1015.2 |
| 20260902152054 | 28 | 229 | 4.8 | 16.1 | 0.00 | 0.00 | 0.00 | 78 | 1015.2 |
| 20260902151603 | 28 | 251 | 8.0 | 16.1 | 0.00 | 0.00 | 0.00 | 78 | 1015.2 |
| 20260902151054 | 28 | 228 | 6.4 | 12.9 | 0.00 | 0.00 | 0.00 | 79 | 1015.3 |
| 20260902150554 | 28 | 243 | 4.8 | 14.5 | 0.00 | 0.00 | 0.00 | 80 | 1015.3 |
| 20260902150105 | 28 | 314 | 4.8 | 14.5 | 0.00 | 0.00 | 0.00 | 81 | 1015.4 |
| 20260902145554 | 27 | 240 | 6.4 | 16.1 | 0.00 | 0.00 | 0.00 | 82 | 1015.4 |
| 20260902145054 | 27 | 234 | 8.0 | 17.7 | 0.00 | 0.00 | 0.00 | 82 | 1015.4 |
| 20260902144609 | 27 | 211 | 9.7 | 17.7 | 0.00 | 0.00 | 0.00 | 83 | 1015.4 |
| 20260902144054 | 27 | 198 | 4.8 | 14.5 | 0.00 | 0.00 | 0.00 | 85 | 1015.4 |
| 20260902143555 | 27 | 221 | 6.4 | 16.1 | 0.00 | 0.00 | 0.00 | 86 | 1015.3 |
| 20260902143104 | 26 | 225 | 4.8 | 19.3 | 0.00 | 0.00 | 0.00 | 87 | 1015.4 |
| 20260902142554 | 26 | 203 | 6.4 | 19.3 | 0.00 | 0.00 | 0.00 | 87 | 1015.4 |
| 20260902142054 | 26 | 204 | 6.4 | 12.9 | 0.00 | 0.00 | 0.00 | 88 | 1015.3 |
| 20260902141558 | 26 | 261 | 3.2 | 14.5 | 0.00 | 0.00 | 0.00 | 89 | 1015.3 |
| 20260902141054 | 26 | 220 | 6.4 | 14.5 | 0.00 | 0.00 | 0.00 | 89 | 1015.4 |
| 20260902140621 | 26 | 240 | 8.0 | 14.5 | 0.00 | 0.00 | 0.00 | 90 | 1015.4 |
| 20260902135549 | 25 | 236 | 4.8 | 11.3 | 0.00 | 0.00 | 0.00 | 90 | 1015.3 |
| 20260902135052 | 25 | 202 | 4.8 | 11.3 | 0.00 | 0.00 | 0.00 | 91 | 1015.3 |
| 20260902134606 | 25 | 248 | 3.2 | 11.3 | 0.00 | 0.00 | 0.00 | 91 | 1015.2 |
| 20260902134049 | 25 | 240 | 4.8 | 11.3 | 0.00 | 0.00 | 0.00 | 91 | 1015.2 |
| 20260902133749 | 25 | 236 | 4.8 | 11.3 | 0.00 | 0.00 | 0.00 | 91 | 1015.1 |
| 20260902133103 | 25 | 227 | 4.8 | 11.3 | 0.00 | 0.00 | 0.00 | 91 | 1015.1 |
| 20260902132646 | 25 | 215 | 4.8 | 9.7 | 0.00 | 0.00 | 0.00 | 91 | 1015.2 |
| 20260902132054 | 25 | 202 | 3.2 | 9.7 | 0.00 | 0.00 | 0.00 | 91 | 1015.2 |
| 20260902131613 | 25 | 227 | 4.8 | 9.7 | 0.00 | 0.00 | 0.00 | 91 | 1015.1 |
| 20260902131054 | 25 | 219 | 3.2 | 9.7 | 0.00 | 0.00 | 0.00 | 91 | 1015.1 |
| 20260902130554 | 25 | 209 | 4.8 | 9.7 | 0.00 | 0.00 | 0.00 | 91 | 1015.0 |
| 20260902130112 | 24 | 214 | 3.2 | 9.7 | 0.00 | 0.00 | 0.00 | 91 | 1014.9 |
| 20260902125554 | 24 | 213 | 3.2 | 6.4 | 0.00 | 0.00 | 0.00 | 91 | 1014.9 |
| 20260902125057 | 24 | 214 | 3.2 | 6.4 | 0.00 | 0.00 | 0.00 | 91 | 1014.9 |
| 20260902124600 | 24 | 215 | 0.0 | 3.2 | 0.00 | 0.00 | 0.00 | 91 | 1014.9 |
| 20260902124052 | 24 | 0 | 0.0 | 4.8 | 0.00 | 0.00 | 0.00 | 91 | 1014.7 |
| 20260902123557 | 24 | 0 | 1.6 | 4.8 | 0.00 | 0.00 | 0.00 | 91 | 1014.6 |
| 20260902123106 | 24 | 215 | 1.6 | 4.8 | 0.00 | 0.00 | 0.00 | 91 | 1014.6 |
| 20260902122553 | 24 | 215 | 1.6 | 4.8 | 0.00 | 0.00 | 0.00 | 91 | 1014.6 |
| 20260902122052 | 24 | 214 | 1.6 | 6.4 | 0.00 | 0.00 | 0.00 | 90 | 1014.5 |
| 20260902121604 | 24 | 214 | 1.6 | 6.4 | 0.00 | 0.00 | 0.00 | 90 | 1014.4 |
| 20260902121054 | 24 | 214 | 3.2 | 6.4 | 0.00 | 0.00 | 0.00 | 90 | 1014.3 |
| 20260902120554 | 24 | 215 | 3.2 | 6.4 | 0.00 | 0.00 | 0.00 | 90 | 1014.4 |
| 20260902115555 | 24 | 217 | 0.0 | 3.2 | 0.00 | 0.00 | 0.00 | 89 | 1014.4 |
| 20260902115053 | 24 | 0 | 0.0 | 0.0 | 0.00 | 0.00 | 0.00 | 89 | 1014.3 |
| 20260902114620 | 24 | 0 | 0.0 | 0.0 | 0.00 | 0.00 | 0.00 | 89 | 1014.2 |
| 20260902114053 | 24 | 0 | 0.0 | 3.2 | 0.00 | 0.00 | 0.00 | 89 | 1014.3 |
| 20260902113552 | 24 | 0 | 0.0 | 4.8 | 0.00 | 0.00 | 0.00 | 89 | 1014.3 |
| 20260902113100 | 24 | 217 | 0.0 | 4.8 | 0.00 | 0.00 | 0.00 | 89 | 1014.3 |
| 20260902112552 | 24 | 217 | 1.6 | 4.8 | 0.00 | 0.00 | 0.00 | 88 | 1014.2 |
| 20260902112053 | 24 | 217 | 1.6 | 4.8 | 0.00 | 0.00 | 0.00 | 88 | 1014.1 |
| 20260902111603 | 24 | 217 | 1.6 | 6.4 | 0.00 | 0.00 | 0.00 | 88 | 1014.1 |
| 20260902111053 | 24 | 217 | 3.2 | 8.0 | 0.00 | 0.00 | 0.00 | 88 | 1014.1 |
| 20260902110552 | 24 | 217 | 3.2 | 8.0 | 0.00 | 0.00 | 0.00 | 88 | 1014.2 |
| 20260902110108 | 24 | 217 | 3.2 | 9.7 | 0.00 | 0.00 | 0.00 | 87 | 1014.1 |
| 20260902105552 | 24 | 216 | 3.2 | 9.7 | 0.00 | 0.00 | 0.00 | 87 | 1014.1 |
| 20260902105052 | 24 | 215 | 1.6 | 8.0 | 0.00 | 0.00 | 0.00 | 87 | 1014.0 |
| 20260902104601 | 24 | 214 | 4.8 | 8.0 | 0.00 | 0.00 | 0.00 | 87 | 1014.0 |
| 20260902104052 | 24 | 208 | 4.8 | 8.0 | 0.00 | 0.00 | 0.00 | 86 | 1014.1 |
| 20260902103552 | 24 | 205 | 3.2 | 6.4 | 0.00 | 0.00 | 0.00 | 85 | 1014.1 |
| 20260902103108 | 24 | 206 | 0.0 | 4.8 | 0.00 | 0.00 | 0.00 | 85 | 1014.1 |
| 20260902102552 | 24 | 0 | 0.0 | 4.8 | 0.00 | 0.00 | 0.00 | 85 | 1014.3 |
| 20260902102052 | 24 | 0 | 0.0 | 4.8 | 0.00 | 0.00 | 0.00 | 84 | 1014.2 |
| 20260902101557 | 24 | 0 | 0.0 | 4.8 | 0.00 | 0.00 | 0.00 | 84 | 1014.1 |
| 20260902101052 | 24 | 206 | 1.6 | 8.0 | 0.00 | 0.00 | 0.00 | 84 | 1013.9 |
| 20260902100553 | 24 | 206 | 1.6 | 8.0 | 0.00 | 0.00 | 0.00 | 84 | 1014.1 |
| 20260902100101 | 25 | 0 | 1.6 | 8.0 | 0.00 | 0.00 | 0.00 | 84 | 1014.1 |
| 20260902095552 | 25 | 209 | 1.6 | 9.7 | 0.00 | 0.00 | 0.00 | 84 | 1014.0 |
| 20260902095052 | 25 | 207 | 4.8 | 9.7 | 0.00 | 0.00 | 0.00 | 84 | 1013.9 |
| 20260902094604 | 25 | 210 | 4.8 | 9.7 | 0.00 | 0.00 | 0.00 | 83 | 1014.0 |
| 20260902094052 | 25 | 207 | 3.2 | 9.7 | 0.00 | 0.00 | 0.00 | 83 | 1014.2 |
| 20260902093552 | 25 | 211 | 4.8 | 9.7 | 0.00 | 0.00 | 0.00 | 83 | 1014.3 |
| 20260902093057 | 25 | 210 | 4.8 | 9.7 | 0.00 | 0.00 | 0.00 | 83 | 1014.3 |
| 20260902092553 | 25 | 205 | 4.8 | 9.7 | 0.00 | 0.00 | 0.00 | 83 | 1014.3 |
| 20260902092053 | 25 | 203 | 4.8 | 9.7 | 0.00 | 0.00 | 0.00 | 82 | 1014.3 |
| 20260902091603 | 25 | 205 | 4.8 | 8.0 | 0.00 | 0.00 | 0.00 | 82 | 1014.2 |
| 20260902091055 | 25 | 198 | 3.2 | 6.4 | 0.00 | 0.00 | 0.00 | 82 | 1014.4 |
| 20260902090553 | 25 | 198 | 1.6 | 6.4 | 0.00 | 0.00 | 0.00 | 81 | 1014.3 |
| 20260902090059 | 25 | 198 | 3.2 | 8.0 | 0.00 | 0.00 | 0.00 | 81 | 1014.3 |
| 20260902085552 | 25 | 196 | 3.2 | 8.0 | 0.00 | 0.00 | 0.00 | 81 | 1014.4 |
| 20260902085119 | 25 | 196 | 1.6 | 4.8 | 0.00 | 0.00 | 0.00 | 81 | 1014.4 |
| 20260902084607 | 25 | 196 | 1.6 | 6.4 | 0.00 | 0.00 | 0.00 | 80 | 1014.5 |
| 20260902084052 | 25 | 0 | 1.6 | 6.4 | 0.00 | 0.00 | 0.00 | 80 | 1014.4 |
| 20260902083553 | 25 | 196 | 1.6 | 4.8 | 0.00 | 0.00 | 0.00 | 80 | 1014.4 |
| 20260902083059 | 25 | 0 | 1.6 | 4.8 | 0.00 | 0.00 | 0.00 | 80 | 1014.4 |
| 20260902082552 | 25 | 0 | 0.0 | 6.4 | 0.00 | 0.00 | 0.00 | 79 | 1014.4 |
| 20260902082052 | 25 | 0 | 0.0 | 6.4 | 0.00 | 0.00 | 0.00 | 79 | 1014.5 |
| 20260902081557 | 25 | 195 | 1.6 | 6.4 | 0.00 | 0.00 | 0.00 | 79 | 1014.5 |
| 20260902081054 | 25 | 195 | 3.2 | 6.4 | 0.00 | 0.00 | 0.00 | 79 | 1014.5 |
| 20260902080553 | 25 | 190 | 3.2 | 6.4 | 0.00 | 0.00 | 0.00 | 79 | 1014.5 |
| 20260902080103 | 25 | 190 | 3.2 | 6.4 | 0.00 | 0.00 | 0.00 | 78 | 1014.6 |
| 20260902075552 | 25 | 189 | 3.2 | 6.4 | 0.00 | 0.00 | 0.00 | 78 | 1014.6 |
| 20260902075055 | 26 | 187 | 3.2 | 8.0 | 0.00 | 0.00 | 0.00 | 78 | 1014.6 |
| 20260902074559 | 26 | 186 | 3.2 | 8.0 | 0.00 | 0.00 | 0.00 | 78 | 1014.6 |
| 20260902074053 | 26 | 186 | 3.2 | 9.7 | 0.00 | 0.00 | 0.00 | 78 | 1014.6 |
| 20260902073553 | 26 | 184 | 3.2 | 9.7 | 0.00 | 0.00 | 0.00 | 77 | 1014.6 |
| 20260902073057 | 26 | 181 | 3.2 | 8.0 | 0.00 | 0.00 | 0.00 | 77 | 1014.6 |
| 20260902072553 | 26 | 131 | 0.0 | 4.8 | 0.00 | 0.00 | 0.00 | 77 | 1014.5 |
| 20260902072055 | 26 | 128 | 0.0 | 4.8 | 0.00 | 0.00 | 0.00 | 77 | 1014.6 |
| 20260902071605 | 26 | 126 | 0.0 | 4.8 | 0.00 | 0.00 | 0.00 | 76 | 1014.6 |
| 20260902071055 | 26 | 126 | 0.0 | 4.8 | 0.00 | 0.00 | 0.00 | 76 | 1014.7 |
| 20260902070552 | 26 | 0 | 0.0 | 4.8 | 0.00 | 0.00 | 0.00 | 75 | 1014.6 |
| 20260902070100 | 26 | 0 | 0.0 | 4.8 | 0.00 | 0.00 | 0.00 | 75 | 1014.6 |
| 20260902065552 | 26 | 0 | 0.0 | 0.0 | 0.00 | 0.00 | 0.00 | 74 | 1014.5 |
| 20260902065053 | 26 | 0 | 0.0 | 0.0 | 0.00 | 0.00 | 0.00 | 74 | 1014.5 |
| 20260902064601 | 26 | 0 | 0.0 | 0.0 | 0.00 | 0.00 | 0.00 | 74 | 1014.6 |
| 20260902064055 | 26 | 0 | 0.0 | 0.0 | 0.00 | 0.00 | 0.00 | 73 | 1014.6 |
| 20260902063555 | 27 | 0 | 0.0 | 6.4 | 0.00 | 0.00 | 0.00 | 73 | 1014.6 |
| 20260902063109 | 27 | 0 | 0.0 | 6.4 | 0.00 | 0.00 | 0.00 | 73 | 1014.6 |
| 20260902062555 | 27 | 0 | 1.6 | 6.4 | 0.00 | 0.00 | 0.00 | 73 | 1014.6 |
| 20260902062054 | 27 | 0 | 0.0 | 6.4 | 0.00 | 0.00 | 0.00 | 73 | 1014.5 |
| 20260902061601 | 27 | 122 | 0.0 | 6.4 | 0.00 | 0.00 | 0.00 | 72 | 1014.5 |
| 20260902061053 | 27 | 0 | 0.0 | 3.2 | 0.00 | 0.00 | 0.00 | 72 | 1014.7 |
| 20260902060554 | 27 | 0 | 0.0 | 3.2 | 0.00 | 0.00 | 0.00 | 72 | 1014.6 |
| 20260902060128 | 27 | 0 | 0.0 | 8.0 | 0.00 | 0.00 | 0.00 | 71 | 1014.5 |
| 20260902055553 | 27 | 0 | 0.0 | 9.7 | 0.00 | 0.00 | 0.00 | 71 | 1014.6 |
| 20260902055056 | 27 | 130 | 1.6 | 9.7 | 0.00 | 0.00 | 0.00 | 71 | 1014.4 |
| 20260902054558 | 27 | 118 | 1.6 | 8.0 | 0.00 | 0.00 | 0.00 | 70 | 1014.3 |
| 20260902054051 | 27 | 138 | 0.0 | 4.8 | 0.00 | 0.00 | 0.00 | 70 | 1014.3 |
| 20260902053555 | 27 | 161 | 0.0 | 4.8 | 0.00 | 0.00 | 0.00 | 70 | 1014.3 |
| 20260902053102 | 27 | 178 | 0.0 | 4.8 | 0.00 | 0.00 | 0.00 | 70 | 1014.2 |
| 20260902052553 | 27 | 0 | 0.0 | 9.7 | 0.00 | 0.00 | 0.00 | 70 | 1014.2 |
| 20260902052053 | 27 | 189 | 1.6 | 9.7 | 0.00 | 0.00 | 0.00 | 70 | 1014.2 |
| 20260902051558 | 27 | 190 | 1.6 | 9.7 | 0.00 | 0.00 | 0.00 | 70 | 1014.2 |
| 20260902051053 | 28 | 200 | 4.8 | 9.7 | 0.00 | 0.00 | 0.00 | 69 | 1014.2 |
| 20260902050552 | 28 | 192 | 4.8 | 9.7 | 0.00 | 0.00 | 0.00 | 69 | 1014.2 |
| 20260902050105 | 28 | 0 | 1.6 | 8.0 | 0.00 | 0.00 | 0.00 | 69 | 1014.2 |
| 20260902045554 | 28 | 190 | 1.6 | 6.4 | 0.00 | 0.00 | 0.00 | 69 | 1014.2 |
| 20260902045054 | 28 | 0 | 0.0 | 6.4 | 0.00 | 0.00 | 0.00 | 69 | 1014.2 |
| 20260902044600 | 28 | 195 | 1.6 | 6.4 | 0.00 | 0.00 | 0.00 | 69 | 1014.2 |
| 20260902044053 | 28 | 200 | 1.6 | 11.3 | 0.00 | 0.00 | 0.00 | 69 | 1014.2 |
| 20260902043554 | 28 | 0 | 3.2 | 11.3 | 0.00 | 0.00 | 0.00 | 69 | 1014.1 |
| 20260902043107 | 28 | 196 | 1.6 | 9.7 | 0.00 | 0.00 | 0.00 | 68 | 1014.1 |
| 20260902042553 | 28 | 201 | 3.2 | 9.7 | 0.00 | 0.00 | 0.00 | 68 | 1014.0 |
| 20260902042054 | 28 | 196 | 1.6 | 8.0 | 0.00 | 0.00 | 0.00 | 68 | 1014.0 |
| 20260902041611 | 28 | 147 | 1.6 | 11.3 | 0.00 | 0.00 | 0.00 | 68 | 1014.0 |
| 20260902041052 | 28 | 0 | 3.2 | 11.3 | 0.00 | 0.00 | 0.00 | 67 | 1014.0 |
| 20260902040553 | 28 | 167 | 3.2 | 16.1 | 0.00 | 0.00 | 0.00 | 67 | 1014.0 |
| 20260902040105 | 29 | 136 | 1.6 | 16.1 | 0.00 | 0.00 | 0.00 | 67 | 1013.9 |